When you browse on this site, cookies collect data to enhance your experience and personalize the content and advertising you see.
Visit our Privacy Policy to learn more. By continuing to use the site, you agree to this use of cookies and data.
  • In Germany
  • List of Countries
  • For 7 days
  • Water Temperature
  • Weather Map
  • Weather Widgets
  • user-avatar
    Login

    Hourly Weather Megri

    Today, 23 January, Thursday

    Time Temperature Precipitation Wind Pressure Humidity
    00:00 -9°C° 0 mm 1 mps 616 mmHg 75%
    01:00 -9°C° 0 mm 1 mps 616 mmHg 74%
    02:00 -10°C° 0 mm 1 mps 615 mmHg 72%
    03:00 -10°C° 0 mm 1 mps 615 mmHg 71%
    04:00 -12°C° 0 mm 2 mps 615 mmHg 71%
    05:00 -12°C° 0 mm 2 mps 614 mmHg 71%
    06:00 -12°C° 0 mm 2 mps 614 mmHg 71%
    07:00 -10°C° 0 mm 2 mps 614 mmHg 73%
    08:00 -9°C° 0 mm 2 mps 615 mmHg 75%
    09:00 -9°C° 0 mm 2 mps 615 mmHg 77%
    10:00 -9°C° 0 mm 3 mps 615 mmHg 78%
    11:00 -8°C° 0 mm 3 mps 614 mmHg 79%
    12:00 -7°C° 0 mm 3 mps 614 mmHg 80%
    13:00 -7°C° 0 mm 3 mps 614 mmHg 82%
    14:00 -7°C° 0 mm 3 mps 613 mmHg 84%
    15:00 -6°C° 0 mm 3 mps 613 mmHg 86%
    16:00 -7°C° 0 mm 3 mps 613 mmHg 87%
    17:00 -8°C° 0 mm 3 mps 613 mmHg 87%
    18:00 -8°C° 0 mm 2 mps 613 mmHg 87%
    19:00 -8°C° 0 mm 2 mps 614 mmHg 87%
    20:00 -7°C° 0 mm 2 mps 614 mmHg 87%
    21:00 -7°C° 0 mm 2 mps 615 mmHg 86%
    22:00 -7°C° 0.1 mm 2 mps 615 mmHg 87%
    23:00 -7°C° 0.1 mm 2 mps 615 mmHg 88%

    Tomorrow, 24 January, Friday

    Time Temperature Precipitation Wind Pressure Humidity
    00:00 -7°C° 0.1 mm 2 mps 615 mmHg 88%
    01:00 -7°C° 0.1 mm 2 mps 615 mmHg 89%
    02:00 -7°C° 0.1 mm 2 mps 615 mmHg 90%
    03:00 -7°C° 0.1 mm 2 mps 615 mmHg 91%
    04:00 -6°C° 0.3 mm 1 mps 616 mmHg 93%
    05:00 -6°C° 0.3 mm 1 mps 616 mmHg 94%
    06:00 -6°C° 0.3 mm 1 mps 616 mmHg 95%
    07:00 -6°C° 0.3 mm 1 mps 616 mmHg 95%
    08:00 -6°C° 0.3 mm 1 mps 617 mmHg 94%
    09:00 -4°C° 0.3 mm 1 mps 618 mmHg 94%
    10:00 -4°C° 0.2 mm 1 mps 618 mmHg 93%
    11:00 -4°C° 0.2 mm 1 mps 618 mmHg 92%
    12:00 -3°C° 0.2 mm 1 mps 618 mmHg 92%
    13:00 -3°C° 0.2 mm 1 mps 618 mmHg 92%
    14:00 -3°C° 0.2 mm 1 mps 618 mmHg 92%
    15:00 -6°C° 0.2 mm 2 mps 618 mmHg 92%
    16:00 -6°C° 0.3 mm 2 mps 618 mmHg 93%
    17:00 -7°C° 0.3 mm 2 mps 618 mmHg 94%
    18:00 -8°C° 0.3 mm 2 mps 618 mmHg 94%
    19:00 -9°C° 0.1 mm 2 mps 619 mmHg 93%
    20:00 -9°C° 0.1 mm 2 mps 620 mmHg 92%
    21:00 -9°C° 0.1 mm 2 mps 620 mmHg 91%
    22:00 -9°C° 0.1 mm 1 mps 621 mmHg 90%
    23:00 -9°C° 0.1 mm 1 mps 621 mmHg 90%

    Day after tomorrow, 25 January, Saturday

    Time Temperature Precipitation Wind Pressure Humidity
    00:00 -9°C° 0.1 mm 1 mps 621 mmHg 89%
    01:00 -10°C° 0 mm 1 mps 621 mmHg 88%
    02:00 -11°C° 0 mm 1 mps 621 mmHg 87%
    03:00 -12°C° 0 mm 1 mps 621 mmHg 86%
    04:00 -12°C° 0 mm 1 mps 620 mmHg 85%
    05:00 -13°C° 0 mm 1 mps 620 mmHg 85%
    06:00 -14°C° 0 mm 1 mps 620 mmHg 84%
    07:00 -12°C° 0 mm 1 mps 621 mmHg 81%
    08:00 -11°C° 0 mm 1 mps 622 mmHg 79%
    09:00 -10°C° 0 mm 1 mps 623 mmHg 77%
    10:00 -9°C° 0 mm 1 mps 623 mmHg 74%
    11:00 -8°C° 0 mm 1 mps 623 mmHg 72%
    12:00 -7°C° 0 mm 1 mps 623 mmHg 69%
    13:00 -7°C° 0 mm 1 mps 623 mmHg 72%
    14:00 -7°C° 0 mm 1 mps 622 mmHg 74%
    15:00 -7°C° 0 mm 1 mps 622 mmHg 77%
    16:00 -8°C° 0 mm 1 mps 621 mmHg 74%
    17:00 -10°C° 0 mm 1 mps 621 mmHg 71%
    18:00 -12°C° 0 mm 1 mps 620 mmHg 68%
    19:00 -14°C° 0 mm 2 mps 620 mmHg 63%
    20:00 -14°C° 0 mm 2 mps 620 mmHg 58%
    21:00 -14°C° 0 mm 2 mps 620 mmHg 54%
    22:00 -14°C° 0 mm 2 mps 620 mmHg 53%
    23:00 -14°C° 0 mm 2 mps 620 mmHg 52%

    26 January, Sunday

    Time Temperature Precipitation Wind Pressure Humidity
    00:00 -14°C° 0 mm 2 mps 620 mmHg 51%
    01:00 -14°C° 0 mm 2 mps 620 mmHg 51%
    02:00 -14°C° 0 mm 2 mps 620 mmHg 52%
    03:00 -14°C° 0 mm 2 mps 620 mmHg 52%
    04:00 -14°C° 0 mm 2 mps 620 mmHg 53%
    05:00 -14°C° 0 mm 2 mps 620 mmHg 53%
    06:00 -14°C° 0 mm 2 mps 620 mmHg 53%
    07:00 -12°C° 0 mm 2 mps 620 mmHg 57%
    08:00 -10°C° 0 mm 2 mps 621 mmHg 60%
    09:00 -9°C° 0 mm 2 mps 622 mmHg 63%
    10:00 -8°C° 0 mm 2 mps 622 mmHg 63%
    11:00 -7°C° 0 mm 2 mps 621 mmHg 63%
    12:00 -6°C° 0 mm 2 mps 621 mmHg 63%
    13:00 -6°C° 0 mm 2 mps 621 mmHg 66%
    14:00 -6°C° 0 mm 2 mps 621 mmHg 68%
    15:00 -6°C° 0 mm 2 mps 621 mmHg 71%
    16:00 -7°C° 0 mm 2 mps 620 mmHg 67%
    17:00 -9°C° 0 mm 2 mps 620 mmHg 63%
    18:00 -10°C° 0 mm 2 mps 620 mmHg 59%
    19:00 -10°C° 0 mm 2 mps 620 mmHg 57%
    20:00 -10°C° 0 mm 2 mps 620 mmHg 55%
    21:00 -10°C° 0 mm 2 mps 620 mmHg 53%
    22:00 -10°C° 0 mm 2 mps 620 mmHg 53%
    23:00 -10°C° 0 mm 2 mps 620 mmHg 52%

    27 January, Monday

    Time Temperature Precipitation Wind Pressure Humidity
    00:00 -9°C° 0 mm 1 mps 620 mmHg 52%
    01:00 -9°C° 0 mm 1 mps 620 mmHg 52%
    02:00 -9°C° 0 mm 1 mps 621 mmHg 53%
    03:00 -9°C° 0 mm 1 mps 621 mmHg 53%
    04:00 -9°C° 0 mm 1 mps 621 mmHg 54%
    05:00 -9°C° 0 mm 1 mps 621 mmHg 54%
    06:00 -9°C° 0 mm 1 mps 621 mmHg 54%
    07:00 -8°C° 0 mm 1 mps 622 mmHg 57%
    08:00 -7°C° 0 mm 0 mps 623 mmHg 60%
    09:00 -6°C° 0 mm 0 mps 624 mmHg 64%
    10:00 -5°C° 0 mm 0 mps 624 mmHg 63%
    11:00 -4°C° 0 mm 1 mps 625 mmHg 63%
    12:00 -3°C° 0 mm 1 mps 625 mmHg 62%
    13:00 -3°C° 0 mm 1 mps 625 mmHg 66%
    14:00 -2°C° 0 mm 1 mps 625 mmHg 69%
    15:00 -3°C° 0 mm 0 mps 625 mmHg 72%
    16:00 -4°C° 0 mm 1 mps 625 mmHg 73%
    17:00 -7°C° 0 mm 1 mps 624 mmHg 73%
    18:00 -8°C° 0 mm 1 mps 624 mmHg 74%
    19:00 -8°C° 0 mm 1 mps 624 mmHg 71%
    20:00 -9°C° 0 mm 1 mps 624 mmHg 68%
    21:00 -9°C° 0 mm 1 mps 625 mmHg 65%
    22:00 -9°C° 0 mm 1 mps 625 mmHg 65%
    23:00 -9°C° 0 mm 1 mps 624 mmHg 64%

    28 January, Tuesday

    Time Temperature Precipitation Wind Pressure Humidity
    00:00 -9°C° 0 mm 1 mps 624 mmHg 64%
    01:00 -9°C° 0 mm 1 mps 624 mmHg 63%
    02:00 -9°C° 0 mm 1 mps 624 mmHg 62%
    03:00 -9°C° 0 mm 1 mps 624 mmHg 62%
    04:00 -9°C° 0 mm 1 mps 624 mmHg 61%
    05:00 -9°C° 0 mm 1 mps 624 mmHg 61%
    06:00 -9°C° 0 mm 1 mps 624 mmHg 60%
    07:00 -8°C° 0 mm 1 mps 624 mmHg 63%
    08:00 -7°C° 0 mm 1 mps 624 mmHg 65%
    09:00 -6°C° 0 mm 1 mps 625 mmHg 67%
    10:00 -4°C° 0 mm 1 mps 625 mmHg 68%
    11:00 -5°C° 0 mm 2 mps 625 mmHg 68%
    12:00 -4°C° 0 mm 2 mps 624 mmHg 69%
    13:00 -4°C° 0 mm 2 mps 624 mmHg 71%
    14:00 -2°C° 0 mm 1 mps 623 mmHg 74%
    15:00 -2°C° 0 mm 1 mps 623 mmHg 76%
    16:00 -4°C° 0 mm 1 mps 622 mmHg 75%
    17:00 -7°C° 0 mm 2 mps 622 mmHg 73%
    18:00 -8°C° 0 mm 2 mps 621 mmHg 72%
    19:00 -8°C° 0 mm 2 mps 622 mmHg 71%
    20:00 -8°C° 0 mm 2 mps 622 mmHg 70%
    21:00 -8°C° 0 mm 2 mps 622 mmHg 70%
    22:00 -8°C° 0 mm 2 mps 622 mmHg 70%
    23:00 -8°C° 0 mm 2 mps 621 mmHg 70%
    Show more